{"data":{"norad_id":52793,"intl_designator":"2022-058J","name":"GEESAT-1 09","alt_names":[],"object_type":"PAYLOAD","status":"ACTIVE","operator":null,"country":"PRC","launch_date":"2022-06-02","launch_site_code":"XICLF","launch_vehicle":null,"mission":null,"orbit_class":"UNKNOWN","rcs_meters":null,"size_class":null,"mass_kg":null,"dimensions":null,"purposes":[],"wikipedia_slug":null,"has_3d_model":false,"image_url":null,"decayed_at":null,"tle_current":{"epoch":"2026-05-25T03:15:00.548928Z","epoch_age_seconds":53608,"freshness":"FRESH","line1":"1 52793U 22058J   26145.13542302  .00004086  00000+0  34217-3 0  9998","line2":"2 52793  49.9975 291.4314 0006459  80.1554 280.0120 15.00355018216787","mean_motion":15.00355018,"eccentricity":0.0006459,"inclination_deg":49.9975,"raan_deg":291.4314,"arg_perigee_deg":80.1554,"mean_anomaly_deg":280.012,"bstar":0.00034217,"rev_number":21678,"period_min":95.977284224339,"perigee_km":561.31564486983,"apogee_km":570.28582363494,"semimajor_km":6943.9377342524,"source":"CELESTRAK","updated_at":"2026-05-25T13:37:57.890622Z"}}}